Location: Newark
(43.6486°N, 79.3853°W)
Time: 12:43:31
(UTC+00:00)

ISS - Pass Details

Date: 05 April 2020
Orbit: 417 x 419 km, 51.6° (Epoch: 03 June)

Event Time Altitude Azimuth Distance (km) Brightness Sun altitude
Rises 01:57:52 0° 287° (WNW) 2,362 1.3 -22.5°
Reaches altitude 10° 02:00:46 10° 260° (W) 1,493 -0.4 -22.9°
Enters shadow 02:02:26 14° 230° (SW) 1,293 -1.1 -23.1°
